Time,TemperatureF,DewpointF,PressureIn,WindDirection,WindDirectionDegrees,WindSpeedMPH,WindSpeedGustMPH,Humidity,HourlyPrecipIn,Conditions,Clouds,dailyrainin,SoftwareType,DateUTC
2013-09-06 00:04:00,64.2,63.3,30.15,SE,127,0.0,0.0,97,0.00,,,0.00,Wunderground v.1.15,2013-09-06 05:04:00,
2013-09-06 00:09:00,63.9,62.7,30.15,SE,127,0.0,0.0,96,0.00,,,0.00,Wunderground v.1.15,2013-09-06 05:09:00,
2013-09-06 00:14:00,63.7,62.5,30.15,SE,127,0.0,0.0,96,0.00,,,0.00,Wunderground v.1.15,2013-09-06 05:14:00,
2013-09-06 00:19:00,63.8,62.6,30.15,SE,127,0.0,0.0,96,0.00,,,0.00,Wunderground v.1.15,2013-09-06 05:19:00,
2013-09-06 00:24:00,63.9,63.0,30.15,SE,127,0.0,0.0,97,0.00,,,0.00,Wunderground v.1.15,2013-09-06 05:24:00,
2013-09-06 00:30:00,63.7,62.5,30.15,SE,127,0.0,0.0,96,0.00,,,0.00,Wunderground v.1.15,2013-09-06 05:30:00,
2013-09-06 00:35:00,63.3,62.1,30.15,SE,127,0.0,0.0,96,0.00,,,0.00,Wunderground v.1.15,2013-09-06 05:35:00,
2013-09-06 00:40:00,63.4,62.5,30.15,SE,127,0.0,0.0,97,0.00,,,0.00,Wunderground v.1.15,2013-09-06 05:40:00,
2013-09-06 00:45:00,63.4,62.5,30.16,SE,127,0.0,0.0,97,0.00,,,0.00,Wunderground v.1.15,2013-09-06 05:45:00,
2013-09-06 00:50:00,63.2,62.3,30.15,SE,127,0.0,0.0,97,0.00,,,0.00,Wunderground v.1.15,2013-09-06 05:50:00,
2013-09-06 00:55:00,62.9,61.7,30.15,SE,127,0.0,0.0,96,0.00,,,0.00,Wunderground v.1.15,2013-09-06 05:55:00,
2013-09-06 01:00:00,63.1,62.2,30.15,SE,127,0.0,0.0,97,0.00,,,0.00,Wunderground v.1.15,2013-09-06 06:00:00,
2013-09-06 01:06:00,63.2,62.3,30.15,SE,127,0.0,0.0,97,0.00,,,0.00,Wunderground v.1.15,2013-09-06 06:06:00,
2013-09-06 01:11:00,62.9,62.0,30.15,SE,127,0.0,0.0,97,0.00,,,0.00,Wunderground v.1.15,2013-09-06 06:11:00,
2013-09-06 01:16:00,62.5,61.3,30.15,SE,127,0.0,0.0,96,0.00,,,0.00,Wunderground v.1.15,2013-09-06 06:16:00,
2013-09-06 01:21:00,62.2,61.3,30.15,SE,127,0.0,0.0,97,0.00,,,0.00,Wunderground v.1.15,2013-09-06 06:21:00,
2013-09-06 01:26:00,62.3,61.4,30.15,SE,127,0.0,0.0,97,0.00,,,0.00,Wunderground v.1.15,2013-09-06 06:26:00,
2013-09-06 01:32:00,62.5,61.6,30.15,SE,127,0.0,0.0,97,0.00,,,0.00,Wunderground v.1.15,2013-09-06 06:32:00,
2013-09-06 01:37:00,62.3,61.4,30.15,SE,127,0.0,0.0,97,0.00,,,0.00,Wunderground v.1.15,2013-09-06 06:37:00,
2013-09-06 01:42:00,62.0,61.1,30.15,SE,127,0.0,0.0,97,0.00,,,0.00,Wunderground v.1.15,2013-09-06 06:42:00,
2013-09-06 01:47:00,62.0,61.1,30.15,SE,127,0.0,0.0,97,0.00,,,0.00,Wunderground v.1.15,2013-09-06 06:47:00,
2013-09-06 01:52:00,62.2,61.3,30.15,SE,127,0.0,0.0,97,0.00,,,0.00,Wunderground v.1.15,2013-09-06 06:52:00,
2013-09-06 01:57:00,62.2,61.3,30.15,SE,127,0.0,0.0,97,0.00,,,0.00,Wunderground v.1.15,2013-09-06 06:57:00,
2013-09-06 02:02:00,62.3,61.4,30.15,SE,127,0.0,0.0,97,0.00,,,0.00,Wunderground v.1.15,2013-09-06 07:02:00,
2013-09-06 02:07:00,62.4,61.5,30.15,SE,127,0.0,0.0,97,0.00,,,0.00,Wunderground v.1.15,2013-09-06 07:07:00,
2013-09-06 02:12:00,62.2,61.3,30.15,SE,127,0.0,0.0,97,0.00,,,0.00,Wunderground v.1.15,2013-09-06 07:12:00,
2013-09-06 02:18:00,62.2,61.3,30.15,SE,127,0.0,0.0,97,0.00,,,0.00,Wunderground v.1.15,2013-09-06 07:18:00,
2013-09-06 02:23:00,62.0,61.1,30.15,SE,127,0.0,0.0,97,0.00,,,0.00,Wunderground v.1.15,2013-09-06 07:23:00,
2013-09-06 02:28:00,61.8,60.9,30.15,SE,127,0.0,0.0,97,0.00,,,0.00,Wunderground v.1.15,2013-09-06 07:28:00,
2013-09-06 02:33:00,62.1,61.2,30.15,SE,127,0.0,0.0,97,0.00,,,0.00,Wunderground v.1.15,2013-09-06 07:33:00,
2013-09-06 02:38:00,62.1,61.2,30.14,SE,127,0.0,0.0,97,0.00,,,0.00,Wunderground v.1.15,2013-09-06 07:38:00,
2013-09-06 02:43:00,61.9,61.0,30.14,SE,127,0.0,0.0,97,0.00,,,0.00,Wunderground v.1.15,2013-09-06 07:43:00,
2013-09-06 02:48:00,62.0,61.1,30.14,SE,127,0.0,0.0,97,0.00,,,0.00,Wunderground v.1.15,2013-09-06 07:48:00,
2013-09-06 02:53:00,62.0,61.1,30.14,SE,127,0.0,0.0,97,0.00,,,0.00,Wunderground v.1.15,2013-09-06 07:53:00,
2013-09-06 02:59:00,61.7,60.8,30.14,SE,127,0.0,0.0,97,0.00,,,0.00,Wunderground v.1.15,2013-09-06 07:59:00,
2013-09-06 03:04:00,61.8,60.9,30.14,SE,127,0.0,0.0,97,0.00,,,0.00,Wunderground v.1.15,2013-09-06 08:04:00,
2013-09-06 03:09:00,61.8,60.9,30.14,SE,127,0.0,0.0,97,0.00,,,0.00,Wunderground v.1.15,2013-09-06 08:09:00,
2013-09-06 03:15:00,61.6,60.7,30.14,SE,127,0.0,0.0,97,0.00,,,0.00,Wunderground v.1.15,2013-09-06 08:15:00,
2013-09-06 03:20:00,61.5,60.6,30.14,SE,127,0.0,0.0,97,0.00,,,0.00,Wunderground v.1.15,2013-09-06 08:20:00,
2013-09-06 03:25:00,61.5,60.6,30.14,SE,127,0.0,0.0,97,0.00,,,0.00,Wunderground v.1.15,2013-09-06 08:25:00,
2013-09-06 03:30:00,61.4,60.5,30.14,SE,127,0.0,0.0,97,0.00,,,0.00,Wunderground v.1.15,2013-09-06 08:30:00,
2013-09-06 03:35:00,61.4,60.5,30.15,SE,127,0.0,0.0,97,0.00,,,0.00,Wunderground v.1.15,2013-09-06 08:35:00,
2013-09-06 03:40:00,61.1,60.2,30.14,ENE,75,0.0,2.0,97,0.00,,,0.00,Wunderground v.1.15,2013-09-06 08:40:00,
2013-09-06 03:45:00,61.0,60.1,30.14,ENE,75,0.0,2.0,97,0.00,,,0.00,Wunderground v.1.15,2013-09-06 08:45:00,
2013-09-06 03:50:00,61.1,60.2,30.14,ENE,75,0.0,0.0,97,0.00,,,0.00,Wunderground v.1.15,2013-09-06 08:50:00,
2013-09-06 03:55:00,61.3,60.4,30.14,ENE,75,0.0,0.0,97,0.00,,,0.00,Wunderground v.1.15,2013-09-06 08:55:00,
2013-09-06 04:00:00,61.2,60.3,30.14,ENE,75,0.0,0.0,97,0.00,,,0.00,Wunderground v.1.15,2013-09-06 09:00:00,
2013-09-06 04:06:00,61.4,60.5,30.14,ENE,75,0.0,0.0,97,0.00,,,0.00,Wunderground v.1.15,2013-09-06 09:06:00,
2013-09-06 04:11:00,61.5,60.6,30.14,ENE,70,0.0,0.0,97,0.00,,,0.00,Wunderground v.1.15,2013-09-06 09:11:00,
2013-09-06 04:16:00,61.3,60.4,30.14,ENE,71,0.0,0.0,97,0.00,,,0.00,Wunderground v.1.15,2013-09-06 09:16:00,
2013-09-06 04:21:00,61.2,60.3,30.13,ENE,70,0.0,0.0,97,0.00,,,0.00,Wunderground v.1.15,2013-09-06 09:21:00,
2013-09-06 04:26:00,61.1,60.2,30.13,ENE,70,0.0,0.0,97,0.00,,,0.00,Wunderground v.1.15,2013-09-06 09:26:00,
2013-09-06 04:31:00,61.0,60.1,30.14,ENE,72,0.0,0.0,97,0.00,,,0.00,Wunderground v.1.15,2013-09-06 09:31:00,
2013-09-06 04:36:00,61.1,60.2,30.13,ENE,72,0.0,0.0,97,0.00,,,0.00,Wunderground v.1.15,2013-09-06 09:36:00,
2013-09-06 04:41:00,61.2,60.3,30.13,ENE,72,0.0,0.0,97,0.00,,,0.00,Wunderground v.1.15,2013-09-06 09:41:00,
2013-09-06 04:46:00,61.4,60.5,30.14,ENE,72,0.0,0.0,97,0.00,,,0.00,Wunderground v.1.15,2013-09-06 09:46:00,
2013-09-06 04:51:00,61.1,60.2,30.13,ENE,72,0.0,0.0,97,0.00,,,0.00,Wunderground v.1.15,2013-09-06 09:51:00,
2013-09-06 04:56:00,60.7,59.8,30.13,ENE,72,0.0,0.0,97,0.00,,,0.00,Wunderground v.1.15,2013-09-06 09:56:00,
2013-09-06 05:02:00,60.4,59.5,30.14,ENE,72,0.0,0.0,97,0.00,,,0.00,Wunderground v.1.15,2013-09-06 10:02:00,
2013-09-06 05:07:00,60.3,59.4,30.14,ENE,72,0.0,0.0,97,0.00,,,0.00,Wunderground v.1.15,2013-09-06 10:07:00,
2013-09-06 05:12:00,60.2,59.3,30.14,ENE,72,0.0,0.0,97,0.00,,,0.00,Wunderground v.1.15,2013-09-06 10:12:00,
2013-09-06 05:17:00,59.9,59.0,30.14,ENE,72,0.0,0.0,97,0.00,,,0.00,Wunderground v.1.15,2013-09-06 10:17:00,
2013-09-06 05:22:00,60.1,59.2,30.14,ENE,72,0.0,0.0,97,0.00,,,0.00,Wunderground v.1.15,2013-09-06 10:22:00,
2013-09-06 05:27:00,59.9,59.0,30.14,ENE,72,0.0,0.0,97,0.00,,,0.00,Wunderground v.1.15,2013-09-06 10:27:00,
2013-09-06 05:32:00,59.9,59.0,30.14,ENE,72,0.0,0.0,97,0.00,,,0.00,Wunderground v.1.15,2013-09-06 10:32:00,
2013-09-06 05:37:00,60.1,59.2,30.14,ENE,72,0.0,0.0,97,0.00,,,0.00,Wunderground v.1.15,2013-09-06 10:37:00,
2013-09-06 05:42:00,60.1,59.2,30.14,ENE,72,0.0,0.0,97,0.00,,,0.00,Wunderground v.1.15,2013-09-06 10:42:00,
2013-09-06 05:48:00,60.1,59.2,30.14,ENE,72,0.0,0.0,97,0.00,,,0.00,Wunderground v.1.15,2013-09-06 10:48:00,
2013-09-06 05:54:00,60.3,59.4,30.14,ENE,72,0.0,0.0,97,0.00,,,0.00,Wunderground v.1.15,2013-09-06 10:54:00,
2013-09-06 05:59:00,60.2,59.3,30.14,ENE,72,0.0,0.0,97,0.00,,,0.00,Wunderground v.1.15,2013-09-06 10:59:00,
2013-09-06 06:04:00,60.1,59.2,30.14,ENE,72,0.0,0.0,97,0.00,,,0.00,Wunderground v.1.15,2013-09-06 11:04:00,
2013-09-06 06:09:00,59.9,59.0,30.14,ENE,72,0.0,0.0,97,0.00,,,0.00,Wunderground v.1.15,2013-09-06 11:09:00,
2013-09-06 06:14:00,59.7,58.8,30.14,ENE,72,0.0,0.0,97,0.00,,,0.00,Wunderground v.1.15,2013-09-06 11:14:00,
2013-09-06 06:20:00,60.0,59.1,30.14,ENE,72,0.0,0.0,97,0.00,,,0.00,Wunderground v.1.15,2013-09-06 11:20:00,
2013-09-06 06:25:00,60.3,59.7,30.14,ENE,72,0.0,0.0,98,0.00,,,0.00,Wunderground v.1.15,2013-09-06 11:25:00,
2013-09-06 06:30:00,60.2,59.3,30.14,ENE,72,0.0,0.0,97,0.00,,,0.00,Wunderground v.1.15,2013-09-06 11:30:00,
2013-09-06 06:36:00,60.3,59.4,30.15,ENE,72,0.0,0.0,97,0.00,,,0.00,Wunderground v.1.15,2013-09-06 11:36:00,
2013-09-06 06:41:00,60.3,59.7,30.15,ENE,72,0.0,0.0,98,0.00,,,0.00,Wunderground v.1.15,2013-09-06 11:41:00,
2013-09-06 06:46:00,60.1,59.2,30.15,ENE,72,0.0,0.0,97,0.00,,,0.00,Wunderground v.1.15,2013-09-06 11:46:00,
2013-09-06 06:52:00,59.9,59.0,30.15,ENE,72,0.0,0.0,97,0.00,,,0.00,Wunderground v.1.15,2013-09-06 11:52:00,
2013-09-06 06:57:00,60.0,59.1,30.16,ENE,72,0.0,0.0,97,0.00,,,0.00,Wunderground v.1.15,2013-09-06 11:57:00,
2013-09-06 07:02:00,60.2,59.3,30.16,ENE,72,0.0,0.0,97,0.00,,,0.00,Wunderground v.1.15,2013-09-06 12:02:00,
2013-09-06 07:07:00,60.5,59.9,30.16,ENE,72,0.0,0.0,98,0.00,,,0.00,Wunderground v.1.15,2013-09-06 12:07:00,
2013-09-06 07:12:00,61.1,60.5,30.16,ENE,72,0.0,0.0,98,0.00,,,0.00,Wunderground v.1.15,2013-09-06 12:12:00,
2013-09-06 07:18:00,61.9,61.3,30.16,ENE,72,0.0,0.0,98,0.00,,,0.00,Wunderground v.1.15,2013-09-06 12:18:00,
2013-09-06 07:23:00,62.6,62.0,30.16,ENE,72,0.0,0.0,98,0.00,,,0.00,Wunderground v.1.15,2013-09-06 12:23:00,
2013-09-06 07:28:00,62.6,62.0,30.16,ENE,72,0.0,0.0,98,0.00,,,0.00,Wunderground v.1.15,2013-09-06 12:28:00,
2013-09-06 07:33:00,63.1,62.5,30.16,ENE,72,0.0,0.0,98,0.00,,,0.00,Wunderground v.1.15,2013-09-06 12:33:00,
2013-09-06 07:39:00,64.2,63.6,30.16,ENE,72,0.0,0.0,98,0.00,,,0.00,Wunderground v.1.15,2013-09-06 12:39:00,
2013-09-06 07:44:00,65.1,64.5,30.16,ENE,72,0.0,0.0,98,0.00,,,0.00,Wunderground v.1.15,2013-09-06 12:44:00,
2013-09-06 07:49:00,65.9,65.3,30.16,ENE,72,0.0,0.0,98,0.00,,,0.00,Wunderground v.1.15,2013-09-06 12:49:00,
2013-09-06 07:54:00,66.3,65.7,30.16,ENE,72,0.0,0.0,98,0.00,,,0.00,Wunderground v.1.15,2013-09-06 12:54:00,
2013-09-06 08:00:00,67.3,66.7,30.16,ENE,72,0.0,0.0,98,0.00,,,0.00,Wunderground v.1.15,2013-09-06 13:00:00,
2013-09-06 08:06:00,68.0,67.4,30.17,East,98,0.0,0.0,98,0.00,,,0.00,Wunderground v.1.15,2013-09-06 13:06:00,
2013-09-06 08:11:00,68.6,68.0,30.17,East,99,0.0,0.0,98,0.00,,,0.00,Wunderground v.1.15,2013-09-06 13:11:00,
2013-09-06 08:16:00,69.5,68.9,30.17,East,99,0.0,0.0,98,0.00,,,0.00,Wunderground v.1.15,2013-09-06 13:16:00,
2013-09-06 08:21:00,69.7,68.8,30.16,East,82,0.0,0.0,97,0.00,,,0.00,Wunderground v.1.15,2013-09-06 13:21:00,
2013-09-06 08:26:00,70.2,69.3,30.16,ESE,122,0.0,0.0,97,0.00,,,0.00,Wunderground v.1.15,2013-09-06 13:26:00,
2013-09-06 08:31:00,70.5,69.3,30.16,ESE,110,0.0,0.0,96,0.00,,,0.00,Wunderground v.1.15,2013-09-06 13:31:00,
2013-09-06 08:36:00,70.9,69.7,30.16,ESE,123,0.0,2.0,96,0.00,,,0.00,Wunderground v.1.15,2013-09-06 13:36:00,
2013-09-06 08:42:00,72.2,70.7,30.16,SSE,153,0.0,0.0,95,0.00,,,0.00,Wunderground v.1.15,2013-09-06 13:42:00,
2013-09-06 08:48:00,73.1,71.0,30.16,South,172,0.0,1.0,93,0.00,,,0.00,Wunderground v.1.15,2013-09-06 13:48:00,
2013-09-06 08:53:00,73.3,70.2,30.16,SSW,207,1.0,2.0,90,0.00,,,0.00,Wunderground v.1.15,2013-09-06 13:53:00,
2013-09-06 08:58:00,73.5,70.4,30.16,ESE,115,1.0,2.0,90,0.00,,,0.00,Wunderground v.1.15,2013-09-06 13:58:00,
2013-09-06 09:03:00,74.1,70.6,30.16,South,186,1.0,2.0,89,0.00,,,0.00,Wunderground v.1.15,2013-09-06 14:03:00,
2013-09-06 09:09:00,74.2,70.1,30.16,East,100,1.0,3.0,87,0.00,,,0.00,Wunderground v.1.15,2013-09-06 14:09:00,
2013-09-06 09:14:00,74.4,69.6,30.17,SE,127,2.0,3.0,85,0.00,,,0.00,Wunderground v.1.15,2013-09-06 14:14:00,
2013-09-06 09:19:00,74.6,70.1,30.17,SE,136,2.0,4.0,86,0.00,,,0.00,Wunderground v.1.15,2013-09-06 14:19:00,
2013-09-06 09:24:00,75.0,70.5,30.17,East,98,1.0,3.0,86,0.00,,,0.00,Wunderground v.1.15,2013-09-06 14:24:00,
2013-09-06 09:29:00,75.4,70.2,30.17,ESE,111,1.0,3.0,84,0.00,,,0.00,Wunderground v.1.15,2013-09-06 14:29:00,
2013-09-06 09:34:00,76.1,70.6,30.17,SE,136,1.0,2.0,83,0.00,,,0.00,Wunderground v.1.15,2013-09-06 14:34:00,
2013-09-06 09:39:00,76.6,70.3,30.17,SE,146,1.0,2.0,81,0.00,,,0.00,Wunderground v.1.15,2013-09-06 14:39:00,
2013-09-06 09:44:00,77.3,70.3,30.17,SSE,149,1.0,3.0,79,0.00,,,0.00,Wunderground v.1.15,2013-09-06 14:44:00,
2013-09-06 09:49:00,77.5,70.1,30.17,SE,140,1.0,4.0,78,0.00,,,0.00,Wunderground v.1.15,2013-09-06 14:49:00,
2013-09-06 09:54:00,78.0,70.6,30.17,East,84,1.0,2.0,78,0.00,,,0.00,Wunderground v.1.15,2013-09-06 14:54:00,
2013-09-06 09:59:00,78.3,70.9,30.17,ESE,118,1.0,2.0,78,0.00,,,0.00,Wunderground v.1.15,2013-09-06 14:59:00,
2013-09-06 10:05:00,78.8,71.0,30.16,East,90,1.0,2.0,77,0.00,,,0.00,Wunderground v.1.15,2013-09-06 15:05:00,
2013-09-06 10:11:00,79.7,70.7,30.16,ESE,105,1.0,3.0,74,0.00,,,0.00,Wunderground v.1.15,2013-09-06 15:11:00,
2013-09-06 10:16:00,80.1,70.3,30.16,ESE,117,2.0,4.0,72,0.00,,,0.00,Wunderground v.1.15,2013-09-06 15:16:00,
2013-09-06 10:21:00,80.4,69.7,30.16,East,89,2.0,2.0,70,0.00,,,0.00,Wunderground v.1.15,2013-09-06 15:21:00,
2013-09-06 10:26:00,80.5,69.0,30.16,West,278,2.0,4.0,68,0.00,,,0.00,Wunderground v.1.15,2013-09-06 15:26:00,
2013-09-06 10:31:00,81.1,70.0,30.16,SW,222,2.0,3.0,69,0.00,,,0.00,Wunderground v.1.15,2013-09-06 15:31:00,
2013-09-06 10:36:00,81.3,69.3,30.16,SE,142,1.0,3.0,67,0.00,,,0.00,Wunderground v.1.15,2013-09-06 15:36:00,
2013-09-06 10:41:00,81.7,70.1,30.16,SE,129,1.0,3.0,68,0.00,,,0.00,Wunderground v.1.15,2013-09-06 15:41:00,
2013-09-06 10:47:00,82.1,69.6,30.17,SE,133,2.0,3.0,66,0.00,,,0.00,Wunderground v.1.15,2013-09-06 15:47:00,
2013-09-06 10:52:00,82.5,70.4,30.17,East,82,2.0,2.0,67,0.00,,,0.00,Wunderground v.1.15,2013-09-06 15:52:00,
2013-09-06 10:57:00,83.0,70.0,30.16,SW,215,1.0,5.0,65,0.00,,,0.00,Wunderground v.1.15,2013-09-06 15:57:00,
2013-09-06 11:02:00,83.0,69.6,30.16,SW,226,2.0,3.0,64,0.00,,,0.00,Wunderground v.1.15,2013-09-06 16:02:00,
2013-09-06 11:07:00,83.4,69.0,30.16,East,86,2.0,3.0,62,0.00,,,0.00,Wunderground v.1.15,2013-09-06 16:07:00,
2013-09-06 11:12:00,83.5,70.5,30.16,SE,131,2.0,5.0,65,0.00,,,0.00,Wunderground v.1.15,2013-09-06 16:12:00,
2013-09-06 11:17:00,83.3,69.8,30.16,ESE,114,2.0,5.0,64,0.00,,,0.00,Wunderground v.1.15,2013-09-06 16:17:00,
2013-09-06 11:23:00,83.6,69.7,30.16,SE,127,2.0,3.0,63,0.00,,,0.00,Wunderground v.1.15,2013-09-06 16:23:00,
2013-09-06 11:28:00,83.9,70.0,30.16,SSW,204,2.0,4.0,63,0.00,,,0.00,Wunderground v.1.15,2013-09-06 16:28:00,
2013-09-06 11:33:00,84.3,68.9,30.16,SW,233,2.0,3.0,60,0.00,,,0.00,Wunderground v.1.15,2013-09-06 16:33:00,
2013-09-06 11:38:00,84.5,70.0,30.16,SSW,201,1.0,4.0,62,0.00,,,0.00,Wunderground v.1.15,2013-09-06 16:38:00,
2013-09-06 11:43:00,84.7,70.2,30.16,SSE,159,2.0,2.0,62,0.00,,,0.00,Wunderground v.1.15,2013-09-06 16:43:00,
2013-09-06 11:49:00,85.2,69.3,30.15,SSE,159,1.0,2.0,59,0.00,,,0.00,Wunderground v.1.15,2013-09-06 16:49:00,
2013-09-06 11:54:00,85.2,68.8,30.15,SSW,202,2.0,5.0,58,0.00,,,0.00,Wunderground v.1.15,2013-09-06 16:54:00,
2013-09-06 11:59:00,85.2,68.8,30.14,SSW,195,2.0,5.0,58,0.00,,,0.00,Wunderground v.1.15,2013-09-06 16:59:00,
2013-09-06 12:05:00,85.2,67.7,30.14,SE,133,2.0,4.0,56,0.00,,,0.00,Wunderground v.1.15,2013-09-06 17:05:00,
2013-09-06 12:10:00,85.3,67.8,30.14,ESE,114,2.0,2.0,56,0.00,,,0.00,Wunderground v.1.15,2013-09-06 17:10:00,
2013-09-06 12:15:00,85.0,68.6,30.14,ESE,110,3.0,7.0,58,0.00,,,0.00,Wunderground v.1.15,2013-09-06 17:15:00,
2013-09-06 12:20:00,84.8,68.4,30.14,South,186,3.0,3.0,58,0.00,,,0.00,Wunderground v.1.15,2013-09-06 17:20:00,
2013-09-06 12:25:00,84.9,66.4,30.14,ESE,112,3.0,6.0,54,0.00,,,0.00,Wunderground v.1.15,2013-09-06 17:25:00,
2013-09-06 12:31:00,85.5,66.4,30.13,SE,141,2.0,3.0,53,0.00,,,0.00,Wunderground v.1.15,2013-09-06 17:31:00,
2013-09-06 12:37:00,86.3,69.3,30.13,East,82,1.0,5.0,57,0.00,,,0.00,Wunderground v.1.15,2013-09-06 17:37:00,
2013-09-06 12:42:00,85.9,67.3,30.13,ESE,108,2.0,2.0,54,0.00,,,0.00,Wunderground v.1.15,2013-09-06 17:42:00,
2013-09-06 12:47:00,86.0,68.5,30.13,East,96,3.0,5.0,56,0.00,,,0.00,Wunderground v.1.15,2013-09-06 17:47:00,
2013-09-06 12:52:00,85.6,69.1,30.12,NE,47,2.0,3.0,58,0.00,,,0.00,Wunderground v.1.15,2013-09-06 17:52:00,
2013-09-06 12:57:00,85.7,68.2,30.12,East,89,3.0,4.0,56,0.00,,,0.00,Wunderground v.1.15,2013-09-06 17:57:00,
2013-09-06 13:03:00,85.9,68.4,30.12,SE,145,2.0,6.0,56,0.00,,,0.00,Wunderground v.1.15,2013-09-06 18:03:00,
2013-09-06 13:08:00,86.0,69.5,30.12,SE,139,3.0,6.0,58,0.00,,,0.00,Wunderground v.1.15,2013-09-06 18:08:00,
2013-09-06 13:13:00,86.3,68.8,30.12,WSW,258,2.0,3.0,56,0.00,,,0.00,Wunderground v.1.15,2013-09-06 18:13:00,
2013-09-06 13:18:00,86.6,69.0,30.11,WSW,249,2.0,3.0,56,0.00,,,0.00,Wunderground v.1.15,2013-09-06 18:18:00,
2013-09-06 13:23:00,86.8,67.6,30.11,SSE,165,2.0,4.0,53,0.00,,,0.00,Wunderground v.1.15,2013-09-06 18:23:00,
2013-09-06 13:28:00,86.8,68.7,30.11,West,264,2.0,7.0,55,0.00,,,0.00,Wunderground v.1.15,2013-09-06 18:28:00,
2013-09-06 13:33:00,87.0,68.9,30.11,SW,214,2.0,4.0,55,0.00,,,0.00,Wunderground v.1.15,2013-09-06 18:33:00,
2013-09-06 13:39:00,87.1,68.4,30.11,SSW,207,2.0,4.0,54,0.00,,,0.00,Wunderground v.1.15,2013-09-06 18:39:00,
2013-09-06 13:44:00,87.1,67.9,30.10,SE,135,2.0,2.0,53,0.00,,,0.00,Wunderground v.1.15,2013-09-06 18:44:00,
2013-09-06 13:49:00,88.0,69.3,30.10,WNW,284,1.0,4.0,54,0.00,,,0.00,Wunderground v.1.15,2013-09-06 18:49:00,
2013-09-06 13:54:00,87.8,69.1,30.10,East,98,2.0,4.0,54,0.00,,,0.00,Wunderground v.1.15,2013-09-06 18:54:00,
2013-09-06 14:00:00,86.9,67.7,30.10,East,96,2.0,2.0,53,0.00,,,0.00,Wunderground v.1.15,2013-09-06 19:00:00,
2013-09-06 14:06:00,86.6,68.5,30.10,East,88,3.0,3.0,55,0.00,,,0.00,Wunderground v.1.15,2013-09-06 19:06:00,
2013-09-06 14:11:00,86.8,68.7,30.10,ESE,117,2.0,2.0,55,0.00,,,0.00,Wunderground v.1.15,2013-09-06 19:11:00,
2013-09-06 14:16:00,87.1,69.5,30.10,SW,232,2.0,4.0,56,0.00,,,0.00,Wunderground v.1.15,2013-09-06 19:16:00,
2013-09-06 14:21:00,87.3,69.2,30.09,WNW,285,2.0,2.0,55,0.00,,,0.00,Wunderground v.1.15,2013-09-06 19:21:00,
2013-09-06 14:26:00,87.7,69.0,30.09,SE,131,2.0,2.0,54,0.00,,,0.00,Wunderground v.1.15,2013-09-06 19:26:00,
2013-09-06 14:31:00,88.1,68.3,30.09,WSW,252,2.0,3.0,52,0.00,,,0.00,Wunderground v.1.15,2013-09-06 19:31:00,
2013-09-06 14:36:00,88.0,69.8,30.09,SE,145,2.0,3.0,55,0.00,,,0.00,Wunderground v.1.15,2013-09-06 19:36:00,
2013-09-06 14:42:00,88.5,68.6,30.09,SW,225,1.0,2.0,52,0.00,,,0.00,Wunderground v.1.15,2013-09-06 19:42:00,
2013-09-06 14:47:00,88.3,69.0,30.09,East,100,2.0,4.0,53,0.00,,,0.00,Wunderground v.1.15,2013-09-06 19:47:00,
2013-09-06 14:52:00,87.6,68.4,30.08,SSW,208,2.0,3.0,53,0.00,,,0.00,Wunderground v.1.15,2013-09-06 19:52:00,
2013-09-06 14:57:00,87.8,68.5,30.08,ESE,113,2.0,3.0,53,0.00,,,0.00,Wunderground v.1.15,2013-09-06 19:57:00,
2013-09-06 15:03:00,88.3,69.0,30.08,SW,221,1.0,1.0,53,0.00,,,0.00,Wunderground v.1.15,2013-09-06 20:03:00,
2013-09-06 15:08:00,88.7,68.8,30.08,SSW,208,1.0,2.0,52,0.00,,,0.00,Wunderground v.1.15,2013-09-06 20:08:00,
2013-09-06 15:13:00,89.0,69.1,30.08,SW,229,1.0,3.0,52,0.00,,,0.00,Wunderground v.1.15,2013-09-06 20:13:00,
2013-09-06 15:18:00,88.6,68.2,30.07,WNW,288,1.0,3.0,51,0.00,,,0.00,Wunderground v.1.15,2013-09-06 20:18:00,
2013-09-06 15:23:00,88.6,69.3,30.07,SE,138,2.0,2.0,53,0.00,,,0.00,Wunderground v.1.15,2013-09-06 20:23:00,
2013-09-06 15:29:00,88.7,68.8,30.07,SE,139,1.0,3.0,52,0.00,,,0.00,Wunderground v.1.15,2013-09-06 20:29:00,
2013-09-06 15:34:00,88.6,69.3,30.07,SE,146,1.0,2.0,53,0.00,,,0.00,Wunderground v.1.15,2013-09-06 20:34:00,
2013-09-06 15:39:00,88.6,68.2,30.07,SE,144,1.0,5.0,51,0.00,,,0.00,Wunderground v.1.15,2013-09-06 20:39:00,
2013-09-06 15:44:00,88.9,69.0,30.06,SW,225,1.0,1.0,52,0.00,,,0.00,Wunderground v.1.15,2013-09-06 20:44:00,
2013-09-06 15:49:00,89.1,68.6,30.06,WSW,239,1.0,3.0,51,0.00,,,0.00,Wunderground v.1.15,2013-09-06 20:49:00,
2013-09-06 15:54:00,88.6,68.7,30.06,ENE,75,1.0,3.0,52,0.00,,,0.00,Wunderground v.1.15,2013-09-06 20:54:00,
2013-09-06 15:59:00,88.1,68.8,30.06,ESE,115,1.0,3.0,53,0.00,,,0.00,Wunderground v.1.15,2013-09-06 20:59:00,
2013-09-06 16:05:00,88.4,69.6,30.06,SE,136,1.0,4.0,54,0.00,,,0.00,Wunderground v.1.15,2013-09-06 21:05:00,
2013-09-06 16:10:00,88.4,68.5,30.06,WSW,248,1.0,1.0,52,0.00,,,0.00,Wunderground v.1.15,2013-09-06 21:10:00,
2013-09-06 16:16:00,89.0,69.1,30.06,WSW,242,1.0,3.0,52,0.00,,,0.00,Wunderground v.1.15,2013-09-06 21:16:00,
2013-09-06 16:21:00,88.8,69.5,30.06,ESE,123,1.0,3.0,53,0.00,,,0.00,Wunderground v.1.15,2013-09-06 21:21:00,
2013-09-06 16:26:00,88.5,69.2,30.05,SSE,150,1.0,3.0,53,0.00,,,0.00,Wunderground v.1.15,2013-09-06 21:26:00,
2013-09-06 16:31:00,88.7,69.4,30.06,WSW,255,1.0,3.0,53,0.00,,,0.00,Wunderground v.1.15,2013-09-06 21:31:00,
2013-09-06 16:36:00,88.3,70.1,30.05,SW,218,1.0,3.0,55,0.00,,,0.00,Wunderground v.1.15,2013-09-06 21:36:00,
2013-09-06 16:42:00,88.4,69.1,30.05,SSW,205,1.0,2.0,53,0.00,,,0.00,Wunderground v.1.15,2013-09-06 21:42:00,
2013-09-06 16:47:00,88.2,69.5,30.05,SW,217,1.0,2.0,54,0.00,,,0.00,Wunderground v.1.15,2013-09-06 21:47:00,
2013-09-06 16:52:00,88.2,70.0,30.05,WSW,253,1.0,2.0,55,0.00,,,0.00,Wunderground v.1.15,2013-09-06 21:52:00,
2013-09-06 16:58:00,88.3,70.1,30.05,WSW,249,1.0,2.0,55,0.00,,,0.00,Wunderground v.1.15,2013-09-06 21:58:00,
2013-09-06 17:04:00,88.1,69.9,30.05,West,269,1.0,2.0,55,0.00,,,0.00,Wunderground v.1.15,2013-09-06 22:04:00,
2013-09-06 17:10:00,88.3,70.6,30.05,SSW,212,1.0,1.0,56,0.00,,,0.00,Wunderground v.1.15,2013-09-06 22:10:00,
2013-09-06 17:15:00,88.4,69.6,30.05,SSW,197,0.0,2.0,54,0.00,,,0.00,Wunderground v.1.15,2013-09-06 22:15:00,
2013-09-06 17:20:00,88.3,70.1,30.05,SSW,205,0.0,0.0,55,0.00,,,0.00,Wunderground v.1.15,2013-09-06 22:20:00,
2013-09-06 17:25:00,88.2,70.5,30.05,SW,228,0.0,2.0,56,0.00,,,0.00,Wunderground v.1.15,2013-09-06 22:25:00,
2013-09-06 17:31:00,88.3,70.1,30.05,West,260,0.0,0.0,55,0.00,,,0.00,Wunderground v.1.15,2013-09-06 22:31:00,
2013-09-06 17:37:00,88.3,71.1,30.05,South,169,0.0,1.0,57,0.00,,,0.00,Wunderground v.1.15,2013-09-06 22:37:00,
2013-09-06 17:42:00,88.4,71.7,30.05,SSW,199,0.0,0.0,58,0.00,,,0.00,Wunderground v.1.15,2013-09-06 22:42:00,
2013-09-06 17:47:00,88.2,71.6,30.05,SSW,204,0.0,0.0,58,0.00,,,0.00,Wunderground v.1.15,2013-09-06 22:47:00,
2013-09-06 17:52:00,88.2,73.0,30.05,SSW,208,0.0,0.0,61,0.00,,,0.00,Wunderground v.1.15,2013-09-06 22:52:00,
2013-09-06 17:57:00,88.0,72.9,30.05,SE,144,0.0,0.0,61,0.00,,,0.00,Wunderground v.1.15,2013-09-06 22:57:00,
2013-09-06 18:02:00,87.0,73.3,30.05,SSE,159,0.0,0.0,64,0.00,,,0.00,Wunderground v.1.15,2013-09-06 23:02:00,
2013-09-06 18:08:00,86.5,73.3,30.05,SE,134,0.0,0.0,65,0.00,,,0.00,Wunderground v.1.15,2013-09-06 23:08:00,
2013-09-06 18:13:00,86.4,73.2,30.05,SSE,160,0.0,0.0,65,0.00,,,0.00,Wunderground v.1.15,2013-09-06 23:13:00,
2013-09-06 18:18:00,86.2,73.0,30.05,SSW,197,0.0,0.0,65,0.00,,,0.00,Wunderground v.1.15,2013-09-06 23:18:00,
2013-09-06 18:23:00,85.7,73.9,30.04,SSW,198,0.0,0.0,68,0.00,,,0.00,Wunderground v.1.15,2013-09-06 23:23:00,
2013-09-06 18:28:00,84.9,74.0,30.05,SSW,197,0.0,0.0,70,0.00,,,0.00,Wunderground v.1.15,2013-09-06 23:28:00,
2013-09-06 18:33:00,84.3,73.4,30.05,SSW,197,0.0,0.0,70,0.00,,,0.00,Wunderground v.1.15,2013-09-06 23:33:00,
2013-09-06 18:39:00,83.5,73.1,30.04,SSW,197,0.0,0.0,71,0.00,,,0.00,Wunderground v.1.15,2013-09-06 23:39:00,
2013-09-06 18:44:00,82.6,72.7,30.04,SSW,197,0.0,0.0,72,0.00,,,0.00,Wunderground v.1.15,2013-09-06 23:44:00,
2013-09-06 18:49:00,81.7,72.6,30.04,SSW,198,0.0,0.0,74,0.00,,,0.00,Wunderground v.1.15,2013-09-06 23:49:00,
2013-09-06 18:54:00,80.7,72.0,30.04,SSW,197,0.0,0.0,75,0.00,,,0.00,Wunderground v.1.15,2013-09-06 23:54:00,
2013-09-06 19:00:00,79.4,71.9,30.05,SSW,197,0.0,0.0,78,0.00,,,0.00,Wunderground v.1.15,2013-09-07 00:00:00,
2013-09-06 19:06:00,78.2,71.5,30.04,SSW,197,0.0,0.0,80,0.00,,,0.00,Wunderground v.1.15,2013-09-07 00:06:00,
2013-09-06 19:11:00,77.2,70.9,30.04,SSW,197,0.0,0.0,81,0.00,,,0.00,Wunderground v.1.15,2013-09-07 00:11:00,
2013-09-06 19:16:00,76.2,70.7,30.04,SSW,197,0.0,0.0,83,0.00,,,0.00,Wunderground v.1.15,2013-09-07 00:16:00,
2013-09-06 19:21:00,75.5,70.3,30.04,SSW,197,0.0,0.0,84,0.00,,,0.00,Wunderground v.1.15,2013-09-07 00:21:00,
2013-09-06 19:27:00,74.8,70.3,30.04,SSW,197,0.0,0.0,86,0.00,,,0.00,Wunderground v.1.15,2013-09-07 00:27:00,
2013-09-06 19:32:00,74.3,70.2,30.03,SSW,197,0.0,0.0,87,0.00,,,0.00,Wunderground v.1.15,2013-09-07 00:32:00,
2013-09-06 19:37:00,73.6,69.5,30.03,SSW,197,0.0,0.0,87,0.00,,,0.00,Wunderground v.1.15,2013-09-07 00:37:00,
2013-09-06 19:42:00,73.1,69.0,30.03,SSW,197,0.0,0.0,87,0.00,,,0.00,Wunderground v.1.15,2013-09-07 00:42:00,
2013-09-06 19:47:00,72.8,69.0,30.03,SSW,197,0.0,0.0,88,0.00,,,0.00,Wunderground v.1.15,2013-09-07 00:47:00,
2013-09-06 19:52:00,72.5,69.1,30.03,SSW,197,0.0,0.0,89,0.00,,,0.00,Wunderground v.1.15,2013-09-07 00:52:00,
2013-09-06 19:57:00,72.2,68.8,30.03,SSW,197,0.0,0.0,89,0.00,,,0.00,Wunderground v.1.15,2013-09-07 00:57:00,
2013-09-06 20:03:00,72.0,68.9,30.03,SSW,197,0.0,0.0,90,0.00,,,0.00,Wunderground v.1.15,2013-09-07 01:03:00,
2013-09-06 20:09:00,71.9,69.1,30.04,SSW,197,0.0,0.0,91,0.00,,,0.00,Wunderground v.1.15,2013-09-07 01:09:00,
2013-09-06 20:15:00,71.5,68.7,30.04,SSW,197,0.0,0.0,91,0.00,,,0.00,Wunderground v.1.15,2013-09-07 01:15:00,
2013-09-06 20:20:00,71.2,68.4,30.04,SSW,197,0.0,0.0,91,0.00,,,0.00,Wunderground v.1.15,2013-09-07 01:20:00,
2013-09-06 20:25:00,71.0,68.6,30.04,SSW,197,0.0,0.0,92,0.00,,,0.00,Wunderground v.1.15,2013-09-07 01:25:00,
2013-09-06 20:30:00,70.8,68.4,30.04,SSW,197,0.0,0.0,92,0.00,,,0.00,Wunderground v.1.15,2013-09-07 01:30:00,
2013-09-06 20:35:00,70.6,68.2,30.05,SSW,197,0.0,0.0,92,0.00,,,0.00,Wunderground v.1.15,2013-09-07 01:35:00,
2013-09-06 20:40:00,70.6,68.5,30.05,SSW,197,0.0,0.0,93,0.00,,,0.00,Wunderground v.1.15,2013-09-07 01:40:00,
2013-09-06 20:45:00,70.4,68.3,30.04,SSW,197,0.0,0.0,93,0.00,,,0.00,Wunderground v.1.15,2013-09-07 01:45:00,
2013-09-06 20:50:00,70.3,68.2,30.04,SSW,197,0.0,0.0,93,0.00,,,0.00,Wunderground v.1.15,2013-09-07 01:50:00,
2013-09-06 20:55:00,70.1,68.0,30.04,SSW,197,0.0,0.0,93,0.00,,,0.00,Wunderground v.1.15,2013-09-07 01:55:00,
2013-09-06 21:00:00,69.9,67.8,30.04,SSW,197,0.0,0.0,93,0.00,,,0.00,Wunderground v.1.15,2013-09-07 02:00:00,
2013-09-06 21:06:00,69.7,67.6,30.04,SSW,197,0.0,0.0,93,0.00,,,0.00,Wunderground v.1.15,2013-09-07 02:06:00,
2013-09-06 21:11:00,69.6,67.5,30.04,SSW,197,0.0,0.0,93,0.00,,,0.00,Wunderground v.1.15,2013-09-07 02:11:00,
2013-09-06 21:16:00,69.5,67.7,30.04,SSW,197,0.0,0.0,94,0.00,,,0.00,Wunderground v.1.15,2013-09-07 02:16:00,
2013-09-06 21:22:00,69.4,67.6,30.04,SSW,197,0.0,0.0,94,0.00,,,0.00,Wunderground v.1.15,2013-09-07 02:22:00,
2013-09-06 21:27:00,69.2,67.4,30.04,SSW,197,0.0,0.0,94,0.00,,,0.00,Wunderground v.1.15,2013-09-07 02:27:00,
2013-09-06 21:33:00,69.1,67.3,30.04,SSW,197,0.0,0.0,94,0.00,,,0.00,Wunderground v.1.15,2013-09-07 02:33:00,
2013-09-06 21:38:00,69.0,67.2,30.04,SSW,197,0.0,0.0,94,0.00,,,0.00,Wunderground v.1.15,2013-09-07 02:38:00,
2013-09-06 21:43:00,68.6,66.8,30.04,SSW,197,0.0,0.0,94,0.00,,,0.00,Wunderground v.1.15,2013-09-07 02:43:00,
2013-09-06 21:49:00,68.4,66.6,30.04,SSW,197,0.0,0.0,94,0.00,,,0.00,Wunderground v.1.15,2013-09-07 02:49:00,
2013-09-06 21:54:00,68.4,66.9,30.04,SSW,197,0.0,0.0,95,0.00,,,0.00,Wunderground v.1.15,2013-09-07 02:54:00,
2013-09-06 22:00:00,68.4,66.9,30.05,SSW,197,0.0,0.0,95,0.00,,,0.00,Wunderground v.1.15,2013-09-07 03:00:00,
2013-09-06 22:06:00,68.4,66.9,30.05,SSW,197,0.0,0.0,95,0.00,,,0.00,Wunderground v.1.15,2013-09-07 03:06:00,
2013-09-06 22:11:00,68.2,66.7,30.05,SSW,197,0.0,0.0,95,0.00,,,0.00,Wunderground v.1.15,2013-09-07 03:11:00,
2013-09-06 22:16:00,68.1,66.6,30.05,SSW,197,0.0,0.0,95,0.00,,,0.00,Wunderground v.1.15,2013-09-07 03:16:00,
2013-09-06 22:21:00,67.9,66.4,30.05,SSW,197,0.0,0.0,95,0.00,,,0.00,Wunderground v.1.15,2013-09-07 03:21:00,
2013-09-06 22:27:00,67.7,66.2,30.04,SSW,197,0.0,0.0,95,0.00,,,0.00,Wunderground v.1.15,2013-09-07 03:27:00,
2013-09-06 22:32:00,67.7,66.2,30.04,SSW,197,0.0,0.0,95,0.00,,,0.00,Wunderground v.1.15,2013-09-07 03:32:00,
2013-09-06 22:37:00,67.8,66.6,30.04,SSW,197,0.0,0.0,96,0.00,,,0.00,Wunderground v.1.15,2013-09-07 03:37:00,
2013-09-06 22:42:00,67.8,66.6,30.04,SSW,197,0.0,0.0,96,0.00,,,0.00,Wunderground v.1.15,2013-09-07 03:42:00,
2013-09-06 22:47:00,67.8,66.6,30.04,SSW,197,0.0,0.0,96,0.00,,,0.00,Wunderground v.1.15,2013-09-07 03:47:00,
2013-09-06 22:52:00,67.6,66.4,30.04,SSW,197,0.0,0.0,96,0.00,,,0.00,Wunderground v.1.15,2013-09-07 03:52:00,
2013-09-06 22:58:00,67.3,65.8,30.04,SSW,197,0.0,0.0,95,0.00,,,0.00,Wunderground v.1.15,2013-09-07 03:58:00,
2013-09-06 23:01:00,67.2,66.0,30.04,SSW,197,0.0,0.0,96,0.00,,,0.00,Wunderground v.1.15,2013-09-07 04:01:00,
2013-09-06 23:02:00,67.1,65.9,30.04,SSW,197,0.0,0.0,96,0.00,,,0.00,Wunderground v.1.15,2013-09-07 04:02:00,
2013-09-06 23:03:00,67.1,65.6,30.04,SSW,197,0.0,0.0,95,0.00,,,0.00,Wunderground v.1.15,2013-09-07 04:03:00,
2013-09-06 23:04:00,67.0,65.5,30.04,SSW,197,0.0,0.0,95,0.00,,,0.00,Wunderground v.1.15,2013-09-07 04:04:00,
2013-09-06 23:05:00,67.1,65.9,30.04,SSW,197,0.0,0.0,96,0.00,,,0.00,Wunderground v.1.15,2013-09-07 04:05:00,
2013-09-06 23:10:00,67.0,65.8,30.04,SSW,197,0.0,0.0,96,0.00,,,0.00,Wunderground v.1.15,2013-09-07 04:10:00,
2013-09-06 23:15:00,66.9,65.7,30.04,SSW,197,0.0,0.0,96,0.00,,,0.00,Wunderground v.1.15,2013-09-07 04:15:00,
2013-09-06 23:20:00,67.0,65.8,30.04,SSW,197,0.0,0.0,96,0.00,,,0.00,Wunderground v.1.15,2013-09-07 04:20:00,
2013-09-06 23:26:00,66.8,65.6,30.04,SSW,197,0.0,0.0,96,0.00,,,0.00,Wunderground v.1.15,2013-09-07 04:26:00,
2013-09-06 23:31:00,66.6,65.4,30.04,SSW,197,0.0,0.0,96,0.00,,,0.00,Wunderground v.1.15,2013-09-07 04:31:00,
2013-09-06 23:36:00,66.6,65.4,30.04,SSW,197,0.0,0.0,96,0.00,,,0.00,Wunderground v.1.15,2013-09-07 04:36:00,
2013-09-06 23:42:00,66.4,65.2,30.04,SSW,197,0.0,0.0,96,0.00,,,0.00,Wunderground v.1.15,2013-09-07 04:42:00,
2013-09-06 23:47:00,66.4,65.2,30.04,SSW,197,0.0,0.0,96,0.00,,,0.00,Wunderground v.1.15,2013-09-07 04:47:00,
2013-09-06 23:52:00,66.4,65.2,30.04,SSW,197,0.0,0.0,96,0.00,,,0.00,Wunderground v.1.15,2013-09-07 04:52:00,
2013-09-06 23:57:00,66.0,64.8,30.04,SSW,197,0.0,0.0,96,0.00,,,0.00,Wunderground v.1.15,2013-09-07 04:57:00,